Location: Peebles
(55.6412°N, 3.1714°W)
Time: 20:50:20
(UTC+01:00)

deb Kosmos-2123 - Pass Details

Date: 06 July 2022
Orbit: 942 x 985 km, 82.9° (Epoch: 17 August)

Event Time Altitude Azimuth Distance (km) Brightness Sun altitude
Exits shadow 03:33:32 - 242° (WSW) 3,417 ? -6.5°
Reaches altitude 10° 03:35:48 10° 253° (WSW) 2,741 ? -6.3°
Maximum altitude 03:40:39 23° 304° (NW) 1,965 ? -6.0°
Drops below altitude 10° 03:45:31 10° 355° (N) 2,735 ? -5.6°
Sets 03:48:38 0° 10° (N) 3,679 ? -5.3°
